Regional Weather Roundup
Issued by NWS

Home | Current Version | Previous Version | Graphics & Text | Print | Product List | Glossary Off
Versions: 1 2 3 4 5 6 7 8 9 10 11 12 13 14 15 16 17 18 19 20 21 22 23 24 25 26 27 28 29 30 31 32 33 34 35 36 37 38 39 40 41 42 43 44 45 46 47 48 49 50

000
ASUS43 KMKX 102121
RWRWI

WISCONSIN REGIONAL WEATHER ROUNDUP
NATIONAL WEATHER SERVICE MILWAUKEE/SULLIVAN WI
300 PM CST SAT DEC 10 2016

NOTE: "FAIR" INDICATES FEW OR NO CLOUDS BELOW 12,000 FEET WITH NO
SIGNIFICANT WEATHER AND/OR OBSTRUCTIONS TO VISIBILITY.

WIZ001-002-006>008-014>016-023>028-102200-
NORTHWEST WISCONSIN

CITY           SKY/WX    TMP DP  RH WIND       PRES   REMARKS
SUPERIOR ARPT  PTCLDY    10  -1  58 NW5       30.38F WCI   2
ASHLAND        CLEAR      9  -1  64 W3        30.37S
HAYWARD        CLOUDY    11   0  61 CALM      30.31F
SIREN          CLOUDY    12   1  62 S3        30.34F
CUMBERLAND     CLOUDY    10   0  61 CALM      30.32R
RICE LAKE      CLOUDY    12   2  64 CALM      30.35S
CHETEK         CLOUDY    11   2  65 CALM      30.34S
LADYSMITH      CLOUDY    13   3  65 E3        30.34S
EAU CLAIRE     CLOUDY    13   3  64 CALM      30.35S
MENOMONIE      CLOUDY    13   5  68 CALM      30.37R
NEW RICHMOND   CLOUDY    13   2  63 S6        30.34F WCI   3
OSCEOLA        CLOUDY    13   3  64 SE3       30.38F
$$

WIZ003>005-009-010-017-018-102200-
NORTH CENTRAL WISCONSIN

CITY           SKY/WX    TMP DP  RH WIND       PRES   REMARKS
MANITOWISH WTR PTCLDY     7  -2  65 CALM      30.28S
ARBOR VITAE    CLEAR     11   1  64 CALM      30.28R
WOODRUFF       CLEAR     11   1  64 CALM      30.28R
RHINELANDER    CLEAR     12  -2  53 CALM      30.29R
EAGLE RIVER    CLEAR      9  -4  55 CALM      30.27R
LAND O LAKES   CLEAR     10   0  61 CALM      30.28S
PHILLIPS       CLOUDY     9   0  66 S5        30.29S WCI   1
TOMAHAWK       CLEAR     11  -1  57 CALM      30.30S
MEDFORD        MOCLDY    10   1  67 CALM      30.29F
MERRILL        PTCLDY    11   0  61 CALM      30.33R
$$

WIZ029-030-035-036-043>047-102200-
CENTRAL WISCONSIN

CITY           SKY/WX    TMP DP  RH WIND       PRES   REMARKS
WAUSAU         PTCLDY    11   1  64 NW7       30.33R WCI   0
MOSINEE        MOCLDY    12   3  67 W5        30.34S WCI   4
MARSHFIELD     CLOUDY    13   2  61 CALM      30.31S
STEVENS POINT  CLOUDY    13   1  57 W3        30.34R
WAUPACA        CLOUDY    19   4  52 CALM      30.37S
WAUTOMA        CLOUDY    17   7  64 SW5       30.37F WCI  10
WISC RAPIDS    CLOUDY    15   5  64 SW3       30.36R
CAMP DOUGLAS   FLURRIES  16   5  62 CALM      30.36R
$$

WIZ011>013-019>022-031-037>040-048>050-102200-
NORTHEAST WISCONSIN

CITY           SKY/WX    TMP DP  RH WIND       PRES   REMARKS
ANTIGO         CLEAR      9  -1  63 SW7       30.30R WCI  -2
SHAWANO        PTCLDY    18   4  54 W5        30.36S WCI  11
OCONTO         CLEAR     17   3  53 W5        30.37S WCI  10
STURGEON BAY   CLEAR     17   5  59 W9        30.36F WCI   6
GREEN BAY      PTCLDY    20   7  57 W8        30.37S WCI  10
MANITOWOC      PTCLDY    19   7  59 SW6       30.38S WCI  11
APPLETON       MOCLDY    18   3  53 VRB3      30.33F
CLINTONVILLE   PTCLDY    18   5  57 W6        30.36S WCI   9
OSHKOSH        PTCLDY    18   7  62 SW6       30.36F WCI  10
$$

WIZ032>034-041-042-053>061-102200-
SOUTHWEST WISCONSIN

CITY           SKY/WX    TMP DP  RH WIND       PRES   REMARKS
LA CROSSE      LGT SNOW  16  10  77 SW6       30.39S WCI   7
SPARTA         LGT SNOW  17   9  70 W3        30.38R
VIROQUA        CLOUDY    13  10  85 CALM      30.34S VSB 1/2
BOSCOBEL       LGT SNOW  20  14  77 CALM      30.40R
PRAIRIE DU CHI LGT SNOW  19  15  82 E3        30.38F VSB 1
PLATTEVILLE    CLOUDY    20  19  96 S5        30.37R VSB 1   WCI  14
$$

WIZ056-057-062-063-064-067-068-102200-
SOUTH CENTRAL WISCONSIN

CITY           SKY/WX    TMP DP  RH WIND       PRES   REMARKS
REEDSBURG      FLURRIES  17   7  65 SW3       30.37R
BARABOO/DELLS  CLOUDY    18   5  55 CALM      30.36R
LONE ROCK      LGT SNOW  20  14  77 SW8       30.39R VSB 3/4 WCI  10
MINERAL POINT  LGT SNOW  21  18  86 CALM      30.36R VSB 1
MADISON        FLURRIES  20  11  68 S8        30.36F WCI  10
MIDDLETON      CLOUDY    22  13  70 SW5       30.37R WCI  15
WATERTOWN      PTSUNNY   20  12  72 S7        30.37R WCI  11
MONROE         LGT SNOW  21  18  86 S5        30.36S WCI  15
JANESVILLE     CLOUDY    23  16  74 SW5       30.38S WCI  17
$$

WIZ051-052-058>065-066-070>072-102200-
SOUTHEAST WISCONSIN

CITY           SKY/WX    TMP DP  RH WIND       PRES   REMARKS
MILWAUKEE      CLOUDY    24  10  55 SW8       30.39F WCI  15
WAUKESHA       PTSUNNY   19  10  68 SW6       30.38F WCI  11
MILWAUKEE/TIMM SUNNY     21   9  58 W6        30.38F WCI  14
RACINE         CLOUDY    23  11  60 SW10      30.41F WCI  12
BURLINGTON     MOSUNNY   27  19  74 CALM      30.38F
KENOSHA        CLOUDY    23  13  65 SW9       30.39F WCI  13
FOND DU LAC    PTCLDY    18   7  62 SW5       30.37F WCI  11
SHEBOYGAN      CLEAR     19   7  59 W8        30.37F WCI   9
WEST BEND      PTCLDY    19   9  63 W5        30.37S WCI  13
JUNEAU         MOSUNNY   17   8  67 CALM      30.38R
$$

LSZ147-162-102200-
LAKE SUPERIOR

STATION/POSITION TIME  TEMP    WIND        PRES    WAVE
                       AIR SEA DIR/SP/G            HT/PER
                 (UTC) (F)     (DEG/KT/KT) (MB)    (FT/S)
DEVILS ISLAND    2100   11     240/  9/ 13 1029.9F
PORT WING        2040   11     190/  2/  7 1028.8S
SAXON HARBOR     2040   14     240/  3/  4 1028.4S
$$

LMZ867-665-643>646-102200-
LAKE MICHIGAN

STATION/POSITION TIME  TEMP    WIND        PRES    WAVE
                       AIR SEA DIR/SP/G            HT/PER
                 (UTC) (F)     (DEG/KT/KT) (MB)    (FT/S)
CHAMBERS ISLAND  2040   20     220/  3/  8 1027.1F
NORTHPORT PIER   2100   20     260/  4/ 11 1027.4
SISTER BAY       2035   26     300/ 10/ 12   N/A
KEWAUNEE LAKESHO 2054   18     290/  5/  9 1027.8F
SHEBOYGAN LAKESH 2100   19     250/  7/  9 1029.7F
PORT WASHINGTON  2030   21     250/  6/ 10 1029.8F
KENOSHA   LAKESH 2100   23     260/  8/ 11 1029.1
$$

TC  - TEMPERATURE IN CELSIUS
VSB - VISIBILITY IN STATUTE MILES
WCI - WIND CHILL INDEX
HX  - HEAT INDEX





USA.gov is the U.S. government's official web portal to all federal, state and local government web resources and services.